Weather History for KRHI - July, 2013

Change the Weather History Date:

Friday, July 12, 2013

  Actual Average Record
Temperature  
Mean Temperature 67 °F 67 °F  
Max Temperature 80 °F 79 °F 105 °F (1936)
Min Temperature 53 °F 55 °F 42 °F (1918)
Degree Days  
Heating Degree Days 0 2  
Month to date heating degree days 10 24  
Since 1 June heating degree days 184 158  
Since 1 July heating degree days 10 24  
Cooling Degree Days 2 4  
Month to date cooling degree days 52 38  
Year to date cooling degree days 106 103  
Since 1 June cooling degree days 92 91  
Growing Degree Days 16 (Base 50)    
Moisture  
Dew Point 55 °F    
Average Humidity 68    
Maximum Humidity 93    
Minimum Humidity 42    
Precipitation  
Precipitation 0.00 in 0.14 in 2.00 in (1986)
Month to date precipitation 1.59 1.62  
Year to date precipitation 20.22 15.19  
Snow  
Snow 0.00 in - 0.00 in ()
Month to date snowfall 0.0  
Since 1 June snowfall 0.0  
Since 1 July snowfall 0.0  
Snow Depth 0.00 in    
Sea Level Pressure  
Sea Level Pressure 30.10 in    
Wind  
Wind Speed 7 mph (South)    
Max Wind Speed 17 mph    
Max Gust Speed 24 mph    
Visibility 10 miles    
Events      
T = Trace of Precipitation, MM = Missing Value Source: NWS Daily Summary

Daily Weather History Graph

Daily Weather History Graph

Search for Another Location

Airport or City:

Trip Planner

Search our weather history database for the weather conditions in past years. The results will help you decide how hot, cold, wet, or windy it might be!

Date:

Astronomy

Jul. 12, 2013 Rise Set
Actual Time 5:20 AM CDT 8:45 PM CDT
Civil Twilight 4:43 AM CDT 9:22 PM CDT
Nautical Twilight 3:55 AM CDT 10:10 PM CDT
Astronomical Twilight 2:53 AM CDT 11:12 PM CDT
Moon 9:53 AM CDT (7/12) 10:39 PM CDT (7/12)
Length of Visible Light 16h 38m
Length of Day
15h 25m
Waxing Crescent, 17% of the Moon is Illuminated
Jul 12
Waxing Crescent
Jul 15
First Quarter
Jul 22
Full
Jul 29
Last Quarter
Aug 6
New

Hourly Weather History & Observations

Time (CDT) Temp. Dew Point Humidity Pressure Visibility Wind Dir Wind Speed Gust Speed Precip Events Conditions
12:53 AM 62.1 °F 55.0 °F 78% 30.09 in 10.0 mi SSW 3.5 mph - N/A   Clear
1:53 AM 61.0 °F 54.0 °F 78% 30.09 in 10.0 mi Calm Calm - N/A   Clear
2:53 AM 59.0 °F 53.1 °F 81% 30.10 in 10.0 mi Calm Calm - N/A   Clear
3:53 AM 54.0 °F 52.0 °F 93% 30.11 in 10.0 mi Calm Calm - N/A   Clear
4:53 AM 54.0 °F 51.1 °F 90% 30.12 in 10.0 mi Calm Calm - N/A   Clear
5:53 AM 55.9 °F 53.1 °F 90% 30.13 in 9.0 mi Calm Calm - N/A   Clear
6:53 AM 60.1 °F 55.9 °F 86% 30.13 in 9.0 mi Calm Calm - N/A   Clear
7:53 AM 64.0 °F 57.9 °F 80% 30.15 in 10.0 mi SW 6.9 mph - N/A   Clear
8:53 AM 70.0 °F 59.0 °F 68% 30.15 in 10.0 mi SW 9.2 mph - N/A   Clear
9:53 AM 72.0 °F 57.9 °F 61% 30.14 in 10.0 mi SSW 11.5 mph 19.6 mph N/A   Clear
10:53 AM 75.9 °F 57.9 °F 54% 30.14 in 10.0 mi WSW 10.4 mph 18.4 mph N/A   Clear
11:53 AM 75.9 °F 55.9 °F 50% 30.12 in 10.0 mi South 12.7 mph 19.6 mph N/A   Clear
12:53 PM 77.0 °F 55.9 °F 48% 30.12 in 10.0 mi SSW 11.5 mph 18.4 mph N/A   Clear
1:53 PM 78.1 °F 55.0 °F 45% 30.10 in 10.0 mi SSW 12.7 mph 19.6 mph N/A   Clear
2:53 PM 79.0 °F 55.0 °F 44% 30.10 in 10.0 mi South 12.7 mph 19.6 mph N/A   Clear
3:53 PM 79.0 °F 54.0 °F 42% 30.10 in 10.0 mi SSW 12.7 mph 21.9 mph N/A   Clear
4:53 PM 79.0 °F 55.9 °F 45% 30.09 in 10.0 mi South 10.4 mph 23.0 mph N/A   Clear
5:53 PM 78.1 °F 55.9 °F 46% 30.08 in 10.0 mi South 10.4 mph 18.4 mph N/A   Clear
6:53 PM 75.0 °F 55.0 °F 50% 30.08 in 10.0 mi South 8.1 mph - N/A   Clear
7:53 PM 73.9 °F 55.9 °F 53% 30.07 in 10.0 mi South 8.1 mph - N/A   Clear
8:53 PM 71.1 °F 55.9 °F 59% 30.06 in 10.0 mi South 5.8 mph - N/A   Clear
9:53 PM 68.0 °F 55.0 °F 63% 30.06 in 10.0 mi SSE 4.6 mph - N/A   Clear
10:53 PM 66.9 °F 55.0 °F 66% 30.05 in 10.0 mi SSE 3.5 mph - N/A   Clear
11:53 PM 66.0 °F 54.0 °F 65% 30.06 in 10.0 mi SSE 3.5 mph - N/A   Clear